Time,TemperatureF,DewpointF,PressureIn,WindDirection,WindDirectionDegrees,WindSpeedMPH,WindSpeedGustMPH,Humidity,HourlyPrecipIn,Conditions,Clouds,dailyrainin,SoftwareType,DateUTC
2013-01-14 00:00:00,10.0,-6.2,30.27,SSE,162,3.0,5.0,47,0.00,,,0.00,Weather View 32 v70,2013-01-14 08:00:00,
2013-01-14 00:05:00,10.4,-5.8,30.27,SSE,161,4.0,5.0,47,0.00,,,0.00,Weather View 32 v70,2013-01-14 08:05:00,
2013-01-14 00:10:00,10.8,-5.5,30.27,SSE,161,4.0,5.0,47,0.00,,,0.00,Weather View 32 v70,2013-01-14 08:10:00,
2013-01-14 00:15:00,11.1,-5.2,30.27,SSE,161,4.0,5.0,47,0.00,,,0.00,Weather View 32 v70,2013-01-14 08:15:00,
2013-01-14 00:20:00,11.3,-5.0,30.27,SSE,162,3.0,5.0,47,0.00,,,0.00,Weather View 32 v70,2013-01-14 08:20:00,
2013-01-14 00:25:00,11.1,-5.2,30.27,SSE,161,3.0,5.0,47,0.00,,,0.00,Weather View 32 v70,2013-01-14 08:25:00,
2013-01-14 00:30:00,10.8,-5.5,30.27,SSE,161,0.0,5.0,47,0.00,,,0.00,Weather View 32 v70,2013-01-14 08:30:00,
2013-01-14 00:36:00,10.2,-6.0,30.27,SSE,162,2.0,5.0,47,0.00,,,0.00,Weather View 32 v70,2013-01-14 08:36:00,
2013-01-14 00:41:00,10.0,-6.2,30.27,SSE,161,2.0,5.0,47,0.00,,,0.00,Weather View 32 v70,2013-01-14 08:41:00,
2013-01-14 00:47:00,8.8,-7.3,30.27,SSE,161,3.0,5.0,47,0.00,,,0.00,Weather View 32 v70,2013-01-14 08:47:00,
2013-01-14 00:52:00,8.6,-7.5,30.27,SSE,161,3.0,5.0,47,0.00,,,0.00,Weather View 32 v70,2013-01-14 08:52:00,
2013-01-14 00:57:00,8.8,-7.3,30.27,SSE,161,3.0,5.0,47,0.00,,,0.00,Weather View 32 v70,2013-01-14 08:57:00,
2013-01-14 01:02:00,8.6,-7.5,30.27,SSE,162,4.0,5.0,47,0.00,,,0.00,Weather View 32 v70,2013-01-14 09:02:00,
2013-01-14 01:07:00,8.6,-7.5,30.27,SSE,161,3.0,5.0,47,0.00,,,0.00,Weather View 32 v70,2013-01-14 09:07:00,
2013-01-14 01:12:00,8.4,-7.7,30.27,SSE,161,3.0,5.0,47,0.00,,,0.00,Weather View 32 v70,2013-01-14 09:12:00,
2013-01-14 01:17:00,8.1,-8.0,30.30,SSE,161,4.0,6.0,47,0.00,,,0.00,Weather View 32 v70,2013-01-14 09:17:00,
2013-01-14 01:22:00,8.1,-8.0,30.30,SSE,161,3.0,6.0,47,0.00,,,0.00,Weather View 32 v70,2013-01-14 09:22:00,
2013-01-14 01:27:00,8.2,-7.8,30.30,SSE,161,5.0,6.0,47,0.00,,,0.00,Weather View 32 v70,2013-01-14 09:27:00,
2013-01-14 01:32:00,8.4,-7.7,30.30,SSE,161,3.0,6.0,47,0.00,,,0.00,Weather View 32 v70,2013-01-14 09:32:00,
2013-01-14 01:37:00,8.4,-7.7,30.30,SSE,161,4.0,6.0,47,0.00,,,0.00,Weather View 32 v70,2013-01-14 09:37:00,
2013-01-14 01:42:00,8.6,-7.5,30.30,SSE,161,3.0,6.0,47,0.00,,,0.00,Weather View 32 v70,2013-01-14 09:42:00,
2013-01-14 01:47:00,8.6,-7.5,30.30,SSE,161,4.0,6.0,47,0.00,,,0.00,Weather View 32 v70,2013-01-14 09:47:00,
2013-01-14 01:52:00,8.6,-7.5,30.30,SSE,162,3.0,6.0,47,0.00,,,0.00,Weather View 32 v70,2013-01-14 09:52:00,
2013-01-14 01:57:00,8.6,-7.5,30.30,SSE,161,3.0,6.0,47,0.00,,,0.00,Weather View 32 v70,2013-01-14 09:57:00,
2013-01-14 02:02:00,8.4,-7.7,30.30,SSE,161,4.0,6.0,47,0.00,,,0.00,Weather View 32 v70,2013-01-14 10:02:00,
2013-01-14 02:07:00,8.6,-7.5,30.30,SSE,161,5.0,6.0,47,0.00,,,0.00,Weather View 32 v70,2013-01-14 10:07:00,
2013-01-14 02:12:00,8.6,-7.5,30.30,SSE,161,4.0,6.0,47,0.00,,,0.00,Weather View 32 v70,2013-01-14 10:12:00,
2013-01-14 02:17:00,9.0,-7.2,30.30,SSE,161,4.0,6.0,47,0.00,,,0.00,Weather View 32 v70,2013-01-14 10:17:00,
2013-01-14 02:22:00,9.3,-6.8,30.30,SSE,161,4.0,6.0,47,0.00,,,0.00,Weather View 32 v70,2013-01-14 10:22:00,
2013-01-14 02:28:00,9.3,-6.8,30.30,SSE,161,4.0,6.0,47,0.00,,,0.00,Weather View 32 v70,2013-01-14 10:28:00,
2013-01-14 02:33:00,9.3,-6.8,30.30,SSE,161,4.0,6.0,47,0.00,,,0.00,Weather View 32 v70,2013-01-14 10:33:00,
2013-01-14 02:38:00,9.5,-6.7,30.30,SSE,162,4.0,6.0,47,0.00,,,0.00,Weather View 32 v70,2013-01-14 10:38:00,
2013-01-14 02:43:00,9.5,-6.7,30.30,SSE,161,3.0,6.0,47,0.00,,,0.00,Weather View 32 v70,2013-01-14 10:43:00,
2013-01-14 02:48:00,9.3,-6.8,30.30,SSE,161,3.0,6.0,47,0.00,,,0.00,Weather View 32 v70,2013-01-14 10:48:00,
2013-01-14 02:53:00,9.1,-7.0,30.30,SSE,161,3.0,6.0,47,0.00,,,0.00,Weather View 32 v70,2013-01-14 10:53:00,
2013-01-14 02:58:00,9.1,-7.0,30.30,SSE,161,3.0,6.0,47,0.00,,,0.00,Weather View 32 v70,2013-01-14 10:58:00,
2013-01-14 03:03:00,9.0,-7.2,30.30,SSE,161,3.0,6.0,47,0.00,,,0.00,Weather View 32 v70,2013-01-14 11:03:00,
2013-01-14 03:08:00,8.8,-7.3,30.30,SSE,161,3.0,6.0,47,0.00,,,0.00,Weather View 32 v70,2013-01-14 11:08:00,
2013-01-14 03:13:00,8.6,-7.5,30.30,SSE,161,0.0,6.0,47,0.00,,,0.00,Weather View 32 v70,2013-01-14 11:13:00,
2013-01-14 03:18:00,8.6,-7.5,30.30,SSE,161,4.0,6.0,47,0.00,,,0.00,Weather View 32 v70,2013-01-14 11:18:00,
2013-01-14 03:23:00,8.8,-7.3,30.30,SSE,161,4.0,6.0,47,0.00,,,0.00,Weather View 32 v70,2013-01-14 11:23:00,
2013-01-14 03:28:00,8.8,-7.3,30.30,SSE,161,3.0,6.0,47,0.00,,,0.00,Weather View 32 v70,2013-01-14 11:28:00,
2013-01-14 03:33:00,8.8,-7.3,30.30,SSE,161,4.0,6.0,47,0.00,,,0.00,Weather View 32 v70,2013-01-14 11:33:00,
2013-01-14 03:38:00,8.8,-7.3,30.30,SSE,161,4.0,6.0,47,0.00,,,0.00,Weather View 32 v70,2013-01-14 11:38:00,
2013-01-14 03:43:00,8.8,-7.3,30.30,SSE,161,4.0,6.0,47,0.00,,,0.00,Weather View 32 v70,2013-01-14 11:43:00,
2013-01-14 03:48:00,8.8,-7.3,30.30,SSE,161,3.0,6.0,47,0.00,,,0.00,Weather View 32 v70,2013-01-14 11:48:00,
2013-01-14 03:53:00,8.6,-7.5,30.30,SSE,161,3.0,6.0,47,0.00,,,0.00,Weather View 32 v70,2013-01-14 11:53:00,
2013-01-14 03:58:00,8.6,-7.5,30.30,SSE,161,4.0,6.0,47,0.00,,,0.00,Weather View 32 v70,2013-01-14 11:58:00,
2013-01-14 04:03:00,8.6,-7.5,30.30,SSE,162,3.0,6.0,47,0.00,,,0.00,Weather View 32 v70,2013-01-14 12:03:00,
2013-01-14 04:08:00,8.6,-7.5,30.30,SSE,161,4.0,6.0,47,0.00,,,0.00,Weather View 32 v70,2013-01-14 12:08:00,
2013-01-14 04:13:00,8.4,-7.7,30.30,SSE,161,4.0,6.0,47,0.00,,,0.00,Weather View 32 v70,2013-01-14 12:13:00,
2013-01-14 04:18:00,8.6,-7.5,30.30,SSE,162,3.0,6.0,47,0.00,,,0.00,Weather View 32 v70,2013-01-14 12:18:00,
2013-01-14 04:23:00,8.6,-7.5,30.30,SSE,161,3.0,6.0,47,0.00,,,0.00,Weather View 32 v70,2013-01-14 12:23:00,
2013-01-14 04:28:00,8.4,-7.7,30.30,SSE,161,3.0,6.0,47,0.00,,,0.00,Weather View 32 v70,2013-01-14 12:28:00,
2013-01-14 04:33:00,8.6,-7.5,30.30,SSE,162,3.0,6.0,47,0.00,,,0.00,Weather View 32 v70,2013-01-14 12:33:00,
2013-01-14 04:38:00,8.4,-7.7,30.30,SSE,162,4.0,6.0,47,0.00,,,0.00,Weather View 32 v70,2013-01-14 12:38:00,
2013-01-14 04:43:00,8.4,-7.7,30.30,SSE,162,5.0,6.0,47,0.00,,,0.00,Weather View 32 v70,2013-01-14 12:43:00,
2013-01-14 04:49:00,8.4,-7.7,30.30,SSE,161,3.0,6.0,47,0.00,,,0.00,Weather View 32 v70,2013-01-14 12:49:00,
2013-01-14 04:54:00,8.2,-7.8,30.30,SSE,161,4.0,6.0,47,0.00,,,0.00,Weather View 32 v70,2013-01-14 12:54:00,
2013-01-14 04:59:00,8.1,-8.0,30.30,SSE,162,4.0,6.0,47,0.00,,,0.00,Weather View 32 v70,2013-01-14 12:59:00,
2013-01-14 05:04:00,8.1,-8.0,30.27,SSE,161,4.0,6.0,47,0.00,,,0.00,Weather View 32 v70,2013-01-14 13:04:00,
2013-01-14 05:09:00,8.1,-8.0,30.27,SSE,162,4.0,6.0,47,0.00,,,0.00,Weather View 32 v70,2013-01-14 13:09:00,
2013-01-14 05:14:00,8.1,-8.0,30.27,SSE,161,4.0,6.0,47,0.00,,,0.00,Weather View 32 v70,2013-01-14 13:14:00,
2013-01-14 05:19:00,7.9,-8.2,30.30,SSE,161,4.0,6.0,47,0.00,,,0.00,Weather View 32 v70,2013-01-14 13:19:00,
2013-01-14 05:24:00,7.9,-8.2,30.30,SSE,161,4.0,6.0,47,0.00,,,0.00,Weather View 32 v70,2013-01-14 13:24:00,
2013-01-14 05:29:00,7.9,-8.2,30.30,SSE,161,3.0,6.0,47,0.00,,,0.00,Weather View 32 v70,2013-01-14 13:29:00,
2013-01-14 05:34:00,7.9,-8.2,30.27,SSE,161,5.0,6.0,47,0.00,,,0.00,Weather View 32 v70,2013-01-14 13:34:00,
2013-01-14 05:39:00,7.9,-8.2,30.27,SSE,162,6.0,6.0,47,0.00,,,0.00,Weather View 32 v70,2013-01-14 13:39:00,
2013-01-14 05:44:00,8.2,-7.8,30.27,SSE,161,4.0,6.0,47,0.00,,,0.00,Weather View 32 v70,2013-01-14 13:44:00,
2013-01-14 05:49:00,8.6,-7.5,30.27,SSE,162,6.0,6.0,47,0.00,,,0.00,Weather View 32 v70,2013-01-14 13:49:00,
2013-01-14 05:54:00,8.8,-7.3,30.27,SSE,161,4.0,8.0,47,0.00,,,0.00,Weather View 32 v70,2013-01-14 13:54:00,
2013-01-14 05:59:00,8.8,-7.3,30.27,SSE,162,5.0,8.0,47,0.00,,,0.00,Weather View 32 v70,2013-01-14 13:59:00,
2013-01-14 06:04:00,9.1,-7.0,30.27,SSE,161,4.0,8.0,47,0.00,,,0.00,Weather View 32 v70,2013-01-14 14:04:00,
2013-01-14 06:09:00,9.5,-6.7,30.27,SSE,161,6.0,8.0,47,0.00,,,0.00,Weather View 32 v70,2013-01-14 14:09:00,
2013-01-14 06:14:00,10.4,-5.8,30.27,SSE,161,2.0,8.0,47,0.00,,,0.00,Weather View 32 v70,2013-01-14 14:14:00,
2013-01-14 06:19:00,11.3,-5.0,30.27,SSE,161,3.0,8.0,47,0.00,,,0.00,Weather View 32 v70,2013-01-14 14:19:00,
2013-01-14 06:24:00,12.0,-4.3,30.27,SSE,161,3.0,8.0,47,0.00,,,0.00,Weather View 32 v70,2013-01-14 14:24:00,
2013-01-14 06:29:00,12.2,-4.2,30.27,SSE,161,4.0,8.0,47,0.00,,,0.00,Weather View 32 v70,2013-01-14 14:29:00,
2013-01-14 06:34:00,12.4,-4.0,30.27,SSE,161,4.0,8.0,47,0.00,,,0.00,Weather View 32 v70,2013-01-14 14:34:00,
2013-01-14 06:39:00,12.2,-4.2,30.27,SSE,162,3.0,8.0,47,0.00,,,0.00,Weather View 32 v70,2013-01-14 14:39:00,
2013-01-14 06:44:00,11.7,-4.7,30.27,SSE,161,4.0,8.0,47,0.00,,,0.00,Weather View 32 v70,2013-01-14 14:44:00,
2013-01-14 06:49:00,11.5,-4.8,30.27,SSE,161,4.0,8.0,47,0.00,,,0.00,Weather View 32 v70,2013-01-14 14:49:00,
2013-01-14 06:54:00,10.9,-5.3,30.27,SSE,161,4.0,6.0,47,0.00,,,0.00,Weather View 32 v70,2013-01-14 14:54:00,
2013-01-14 06:59:00,10.2,-6.0,30.27,SSE,161,4.0,6.0,47,0.00,,,0.00,Weather View 32 v70,2013-01-14 14:59:00,
2013-01-14 07:06:00,9.7,-6.5,30.27,SSE,161,4.0,6.0,47,0.00,,,0.00,Weather View 32 v70,2013-01-14 15:06:00,
2013-01-14 07:11:00,9.1,-7.0,30.27,SSE,162,5.0,6.0,47,0.00,,,0.00,Weather View 32 v70,2013-01-14 15:11:00,
2013-01-14 07:16:00,8.8,-7.3,30.30,SSE,162,4.0,8.0,47,0.00,,,0.00,Weather View 32 v70,2013-01-14 15:16:00,
2013-01-14 07:21:00,8.8,-7.3,30.30,SSE,162,5.0,8.0,47,0.00,,,0.00,Weather View 32 v70,2013-01-14 15:21:00,
2013-01-14 07:26:00,8.8,-7.3,30.30,SSE,162,3.0,8.0,47,0.00,,,0.00,Weather View 32 v70,2013-01-14 15:26:00,
2013-01-14 07:31:00,8.8,-7.3,30.30,SSE,162,4.0,8.0,47,0.00,,,0.00,Weather View 32 v70,2013-01-14 15:31:00,
2013-01-14 07:36:00,8.8,-7.3,30.30,SSE,162,4.0,8.0,47,0.00,,,0.00,Weather View 32 v70,2013-01-14 15:36:00,
2013-01-14 07:41:00,9.0,-7.2,30.30,SSE,162,4.0,8.0,47,0.00,,,0.00,Weather View 32 v70,2013-01-14 15:41:00,
2013-01-14 07:46:00,9.0,-7.2,30.30,SSE,161,4.0,8.0,47,0.00,,,0.00,Weather View 32 v70,2013-01-14 15:46:00,
2013-01-14 07:51:00,9.1,-7.0,30.30,SSE,162,3.0,8.0,47,0.00,,,0.00,Weather View 32 v70,2013-01-14 15:51:00,
2013-01-14 07:56:00,9.3,-6.8,30.30,SSE,161,4.0,8.0,47,0.00,,,0.00,Weather View 32 v70,2013-01-14 15:56:00,
2013-01-14 08:01:00,9.5,-6.7,30.30,SSE,161,5.0,8.0,47,0.00,,,0.00,Weather View 32 v70,2013-01-14 16:01:00,
2013-01-14 08:06:00,9.7,-6.5,30.30,SSE,162,5.0,8.0,47,0.00,,,0.00,Weather View 32 v70,2013-01-14 16:06:00,
2013-01-14 08:11:00,10.2,-6.0,30.30,SSE,161,3.0,8.0,47,0.00,,,0.00,Weather View 32 v70,2013-01-14 16:11:00,
2013-01-14 08:16:00,10.8,-5.5,30.30,SSE,162,4.0,8.0,47,0.00,,,0.00,Weather View 32 v70,2013-01-14 16:16:00,
2013-01-14 08:21:00,11.8,-4.5,30.30,SSE,161,5.0,8.0,47,0.00,,,0.00,Weather View 32 v70,2013-01-14 16:21:00,
2013-01-14 08:26:00,12.4,-4.0,30.30,SSE,162,5.0,8.0,47,0.00,,,0.00,Weather View 32 v70,2013-01-14 16:26:00,
2013-01-14 08:31:00,12.7,-3.7,30.30,SSE,162,5.0,8.0,47,0.00,,,0.00,Weather View 32 v70,2013-01-14 16:31:00,
2013-01-14 08:36:00,12.9,-3.5,30.30,SSE,162,4.0,8.0,47,0.00,,,0.00,Weather View 32 v70,2013-01-14 16:36:00,
2013-01-14 08:41:00,13.3,-3.2,30.30,SSE,162,4.0,8.0,47,0.00,,,0.00,Weather View 32 v70,2013-01-14 16:41:00,
2013-01-14 08:46:00,14.9,-1.7,30.27,SSE,162,5.0,8.0,47,0.00,,,0.00,Weather View 32 v70,2013-01-14 16:46:00,
2013-01-14 08:51:00,17.2,0.0,30.27,SSE,162,5.0,10.0,46,0.00,,,0.00,Weather View 32 v70,2013-01-14 16:51:00,
2013-01-14 08:56:00,18.0,0.2,30.27,SSE,162,6.0,10.0,45,0.00,,,0.00,Weather View 32 v70,2013-01-14 16:56:00,
2013-01-14 09:01:00,18.1,0.4,30.30,SSE,162,3.0,10.0,45,0.00,,,0.00,Weather View 32 v70,2013-01-14 17:01:00,
2013-01-14 09:06:00,18.3,0.5,30.30,SSE,162,5.0,10.0,45,0.00,,,0.00,Weather View 32 v70,2013-01-14 17:06:00,
2013-01-14 09:11:00,19.0,1.2,30.30,SSE,162,5.0,10.0,45,0.00,,,0.00,Weather View 32 v70,2013-01-14 17:11:00,
2013-01-14 09:16:00,18.9,1.0,30.30,SSE,162,4.0,10.0,45,0.00,,,0.00,Weather View 32 v70,2013-01-14 17:16:00,
2013-01-14 09:21:00,19.6,1.2,30.30,SSE,162,3.0,10.0,44,0.00,,,0.00,Weather View 32 v70,2013-01-14 17:21:00,
2013-01-14 09:26:00,20.3,1.9,30.30,SSE,162,4.0,10.0,44,0.00,,,0.00,Weather View 32 v70,2013-01-14 17:26:00,
2013-01-14 09:31:00,20.5,2.0,30.27,SSE,162,6.0,10.0,44,0.00,,,0.00,Weather View 32 v70,2013-01-14 17:31:00,
2013-01-14 09:36:00,21.0,2.5,30.27,SSE,162,6.0,10.0,44,0.00,,,0.00,Weather View 32 v70,2013-01-14 17:36:00,
2013-01-14 09:41:00,21.4,2.8,30.27,SSE,162,5.0,10.0,44,0.00,,,0.00,Weather View 32 v70,2013-01-14 17:41:00,
2013-01-14 09:46:00,21.7,3.2,30.27,SSE,162,4.0,10.0,44,0.00,,,0.00,Weather View 32 v70,2013-01-14 17:46:00,
2013-01-14 09:51:00,22.6,3.5,30.27,SSE,162,4.0,10.0,43,0.00,,,0.00,Weather View 32 v70,2013-01-14 17:51:00,
2013-01-14 09:56:00,23.2,4.0,30.27,SSE,162,7.0,10.0,43,0.00,,,0.00,Weather View 32 v70,2013-01-14 17:56:00,
2013-01-14 10:01:00,23.7,4.5,30.27,SSE,162,4.0,10.0,43,0.00,,,0.00,Weather View 32 v70,2013-01-14 18:01:00,
2013-01-14 10:06:00,24.4,5.1,30.27,SSE,162,6.0,10.0,43,0.00,,,0.00,Weather View 32 v70,2013-01-14 18:06:00,
2013-01-14 10:11:00,25.0,5.1,30.27,SSE,162,3.0,8.0,42,0.00,,,0.00,Weather View 32 v70,2013-01-14 18:11:00,
2013-01-14 10:16:00,25.5,5.6,30.30,SSE,162,0.0,8.0,42,0.00,,,0.00,Weather View 32 v70,2013-01-14 18:16:00,
2013-01-14 10:21:00,26.1,6.1,30.30,SSE,162,5.0,8.0,42,0.00,,,0.00,Weather View 32 v70,2013-01-14 18:21:00,
2013-01-14 10:26:00,26.6,6.6,30.30,SSE,162,5.0,9.0,42,0.00,,,0.00,Weather View 32 v70,2013-01-14 18:26:00,
2013-01-14 10:31:00,27.5,7.4,30.30,SSE,162,5.0,13.0,42,0.00,,,0.00,Weather View 32 v70,2013-01-14 18:31:00,
2013-01-14 10:36:00,27.9,7.7,30.30,SSE,162,11.0,13.0,42,0.00,,,0.00,Weather View 32 v70,2013-01-14 18:36:00,
2013-01-14 10:41:00,27.9,7.7,30.30,SSE,162,8.0,13.0,42,0.00,,,0.00,Weather View 32 v70,2013-01-14 18:41:00,
2013-01-14 10:47:00,27.5,7.4,30.27,SSE,162,8.0,13.0,42,0.00,,,0.00,Weather View 32 v70,2013-01-14 18:47:00,
2013-01-14 10:52:00,28.2,8.1,30.27,SSE,162,6.0,13.0,42,0.00,,,0.00,Weather View 32 v70,2013-01-14 18:52:00,
2013-01-14 10:57:00,28.6,7.8,30.27,SSE,162,8.0,13.0,41,0.00,,,0.00,Weather View 32 v70,2013-01-14 18:57:00,
2013-01-14 11:02:00,29.3,8.5,30.27,SSE,162,8.0,13.0,41,0.00,,,0.00,Weather View 32 v70,2013-01-14 19:02:00,
2013-01-14 11:07:00,29.8,9.0,30.27,SSE,162,11.0,13.0,41,0.00,,,0.00,Weather View 32 v70,2013-01-14 19:07:00,
2013-01-14 11:12:00,30.2,9.3,30.27,SSE,162,5.0,13.0,41,0.00,,,0.00,Weather View 32 v70,2013-01-14 19:12:00,
2013-01-14 11:17:00,30.0,9.2,30.27,SSE,162,10.0,13.0,41,0.00,,,0.00,Weather View 32 v70,2013-01-14 19:17:00,
2013-01-14 11:22:00,29.8,9.0,30.27,SSE,162,9.0,13.0,41,0.00,,,0.00,Weather View 32 v70,2013-01-14 19:22:00,
2013-01-14 11:27:00,30.0,9.2,30.27,West,270,8.0,13.0,41,0.00,,,0.00,Weather View 32 v70,2013-01-14 19:27:00,
2013-01-14 11:32:00,30.2,9.3,30.27,West,276,5.0,13.0,41,0.00,,,0.00,Weather View 32 v70,2013-01-14 19:32:00,
2013-01-14 11:37:00,30.9,10.0,30.27,West,280,8.0,13.0,41,0.00,,,0.00,Weather View 32 v70,2013-01-14 19:37:00,
2013-01-14 11:42:00,31.3,10.3,30.27,West,264,8.0,13.0,41,0.00,,,0.00,Weather View 32 v70,2013-01-14 19:42:00,
2013-01-14 11:47:00,31.8,10.8,30.24,WNW,302,9.0,13.0,41,0.00,,,0.00,Weather View 32 v70,2013-01-14 19:47:00,
2013-01-14 11:52:00,32.5,11.4,30.24,WSW,241,9.0,13.0,41,0.00,,,0.00,Weather View 32 v70,2013-01-14 19:52:00,
2013-01-14 11:57:00,33.1,11.9,30.24,West,263,6.0,13.0,41,0.00,,,0.00,Weather View 32 v70,2013-01-14 19:57:00,
2013-01-14 12:00:00,33.3,12.1,30.24,WSW,240,12.0,13.0,41,0.00,,,0.00,Weather View 32 v70,2013-01-14 20:00:00,
2013-01-14 12:02:00,33.3,12.1,30.24,West,264,8.0,13.0,41,0.00,,,0.00,Weather View 32 v70,2013-01-14 20:02:00,
2013-01-14 12:07:00,33.6,12.4,30.24,West,263,11.0,13.0,41,0.00,,,0.00,Weather View 32 v70,2013-01-14 20:07:00,
2013-01-14 12:12:00,34.0,12.2,30.24,WSW,257,6.0,15.0,40,0.00,,,0.00,Weather View 32 v70,2013-01-14 20:12:00,
2013-01-14 12:17:00,34.3,12.5,30.24,West,279,6.0,15.0,40,0.00,,,0.00,Weather View 32 v70,2013-01-14 20:17:00,
2013-01-14 12:22:00,35.1,13.1,30.24,West,277,9.0,15.0,40,0.00,,,0.00,Weather View 32 v70,2013-01-14 20:22:00,
2013-01-14 12:27:00,35.4,13.5,30.24,WSW,254,8.0,15.0,40,0.00,,,0.00,Weather View 32 v70,2013-01-14 20:27:00,
2013-01-14 12:32:00,35.6,13.6,30.24,West,271,6.0,15.0,40,0.00,,,0.00,Weather View 32 v70,2013-01-14 20:32:00,
2013-01-14 12:37:00,36.1,14.1,30.24,West,275,7.0,15.0,40,0.00,,,0.00,Weather View 32 v70,2013-01-14 20:37:00,
2013-01-14 12:42:00,36.7,14.6,30.24,WSW,250,8.0,15.0,40,0.00,,,0.00,Weather View 32 v70,2013-01-14 20:42:00,
2013-01-14 12:47:00,36.9,14.8,30.24,West,264,5.0,15.0,40,0.00,,,0.00,Weather View 32 v70,2013-01-14 20:47:00,
2013-01-14 12:52:00,37.0,14.9,30.24,West,260,7.0,15.0,40,0.00,,,0.00,Weather View 32 v70,2013-01-14 20:52:00,
2013-01-14 12:57:00,36.9,14.8,30.24,WNW,287,6.0,15.0,40,0.00,,,0.00,Weather View 32 v70,2013-01-14 20:57:00,
2013-01-14 13:00:00,36.9,14.8,30.24,West,272,8.0,15.0,40,0.00,,,0.00,Weather View 32 v70,2013-01-14 21:00:00,
2013-01-14 13:02:00,36.9,14.8,30.24,West,264,5.0,15.0,40,0.00,,,0.00,Weather View 32 v70,2013-01-14 21:02:00,
2013-01-14 13:07:00,36.9,14.8,30.24,WSW,256,6.0,15.0,40,0.00,,,0.00,Weather View 32 v70,2013-01-14 21:07:00,
2013-01-14 13:12:00,37.2,15.1,30.24,West,268,8.0,12.0,40,0.00,,,0.00,Weather View 32 v70,2013-01-14 21:12:00,
2013-01-14 13:17:00,37.6,15.4,30.24,WNW,298,8.0,11.0,40,0.00,,,0.00,Weather View 32 v70,2013-01-14 21:17:00,
2013-01-14 13:23:00,37.9,15.7,30.24,West,274,6.0,11.0,40,0.00,,,0.00,Weather View 32 v70,2013-01-14 21:23:00,
2013-01-14 13:28:00,38.1,15.9,30.24,WNW,288,5.0,11.0,40,0.00,,,0.00,Weather View 32 v70,2013-01-14 21:28:00,
2013-01-14 13:33:00,38.5,16.2,30.24,SW,234,5.0,11.0,40,0.00,,,0.00,Weather View 32 v70,2013-01-14 21:33:00,
2013-01-14 13:38:00,38.5,16.2,30.24,SW,227,5.0,11.0,40,0.00,,,0.00,Weather View 32 v70,2013-01-14 21:38:00,
2013-01-14 13:43:00,37.8,15.6,30.24,SW,226,5.0,11.0,40,0.00,,,0.00,Weather View 32 v70,2013-01-14 21:43:00,
2013-01-14 13:48:00,37.4,15.3,30.24,SW,226,3.0,11.0,40,0.00,,,0.00,Weather View 32 v70,2013-01-14 21:48:00,
2013-01-14 13:53:00,37.2,15.1,30.24,SW,226,4.0,11.0,40,0.00,,,0.00,Weather View 32 v70,2013-01-14 21:53:00,
2013-01-14 13:58:00,37.4,15.3,30.24,WSW,253,4.0,11.0,40,0.00,,,0.00,Weather View 32 v70,2013-01-14 21:58:00,
2013-01-14 14:00:00,37.4,15.3,30.24,WSW,239,2.0,11.0,40,0.00,,,0.00,Weather View 32 v70,2013-01-14 22:00:00,
2013-01-14 14:03:00,37.6,15.4,30.24,SW,228,3.0,11.0,40,0.00,,,0.00,Weather View 32 v70,2013-01-14 22:03:00,
2013-01-14 14:08:00,37.9,15.7,30.24,SW,226,4.0,11.0,40,0.00,,,0.00,Weather View 32 v70,2013-01-14 22:08:00,
2013-01-14 14:13:00,38.3,16.1,30.24,SW,232,4.0,11.0,40,0.00,,,0.00,Weather View 32 v70,2013-01-14 22:13:00,
2013-01-14 14:18:00,38.3,16.1,30.24,SW,226,0.0,11.0,40,0.00,,,0.00,Weather View 32 v70,2013-01-14 22:18:00,
2013-01-14 14:23:00,38.5,16.2,30.24,WSW,253,4.0,8.0,40,0.00,,,0.00,Weather View 32 v70,2013-01-14 22:23:00,
2013-01-14 14:28:00,38.8,16.6,30.24,WSW,253,3.0,8.0,40,0.00,,,0.00,Weather View 32 v70,2013-01-14 22:28:00,
2013-01-14 14:33:00,39.0,16.7,30.24,WSW,247,3.0,8.0,40,0.00,,,0.00,Weather View 32 v70,2013-01-14 22:33:00,
2013-01-14 14:38:00,39.2,16.3,30.24,WSW,247,3.0,6.0,39,0.00,,,0.00,Weather View 32 v70,2013-01-14 22:38:00,
2013-01-14 14:43:00,39.2,16.3,30.24,WSW,247,0.0,6.0,39,0.00,,,0.00,Weather View 32 v70,2013-01-14 22:43:00,
2013-01-14 14:48:00,39.2,16.3,30.24,WSW,247,0.0,6.0,39,0.00,,,0.00,Weather View 32 v70,2013-01-14 22:48:00,
2013-01-14 14:53:00,39.2,16.3,30.24,WSW,247,0.0,6.0,39,0.00,,,0.00,Weather View 32 v70,2013-01-14 22:53:00,
2013-01-14 14:58:00,39.7,16.8,30.24,NNE,16,5.0,6.0,39,0.00,,,0.00,Weather View 32 v70,2013-01-14 22:58:00,
2013-01-14 15:00:00,39.7,16.8,30.24,NNE,15,3.0,6.0,39,0.00,,,0.00,Weather View 32 v70,2013-01-14 23:00:00,
2013-01-14 15:03:00,39.9,16.9,30.24,NNE,15,0.0,6.0,39,0.00,,,0.00,Weather View 32 v70,2013-01-14 23:03:00,
2013-01-14 15:08:00,39.9,16.9,30.24,ENE,69,3.0,6.0,39,0.00,,,0.00,Weather View 32 v70,2013-01-14 23:08:00,
2013-01-14 15:13:00,39.7,16.8,30.24,ENE,69,0.0,6.0,39,0.00,,,0.00,Weather View 32 v70,2013-01-14 23:13:00,
2013-01-14 15:18:00,39.7,16.8,30.24,ENE,58,3.0,6.0,39,0.00,,,0.00,Weather View 32 v70,2013-01-14 23:18:00,
2013-01-14 15:24:00,40.1,17.1,30.24,NE,43,4.0,6.0,39,0.00,,,0.00,Weather View 32 v70,2013-01-14 23:24:00,
2013-01-14 15:29:00,40.3,17.3,30.24,NNE,22,4.0,6.0,39,0.00,,,0.00,Weather View 32 v70,2013-01-14 23:29:00,
2013-01-14 15:34:00,40.3,17.3,30.24,NE,35,3.0,6.0,39,0.00,,,0.00,Weather View 32 v70,2013-01-14 23:34:00,
2013-01-14 15:39:00,40.1,17.1,30.24,North,357,4.0,6.0,39,0.00,,,0.00,Weather View 32 v70,2013-01-14 23:39:00,
2013-01-14 15:44:00,40.1,17.1,30.24,NE,36,0.0,6.0,39,0.00,,,0.00,Weather View 32 v70,2013-01-14 23:44:00,
2013-01-14 15:49:00,39.9,16.9,30.24,NE,36,3.0,6.0,39,0.00,,,0.00,Weather View 32 v70,2013-01-14 23:49:00,
2013-01-14 15:54:00,39.7,16.8,30.24,ENE,61,3.0,6.0,39,0.00,,,0.00,Weather View 32 v70,2013-01-14 23:54:00,
2013-01-14 15:59:00,39.6,16.6,30.24,ENE,63,3.0,6.0,39,0.00,,,0.00,Weather View 32 v70,2013-01-14 23:59:00,
2013-01-14 16:00:00,39.4,16.5,30.27,ENE,64,3.0,6.0,39,0.00,,,0.00,Weather View 32 v70,2013-01-15 00:00:00,
2013-01-14 16:04:00,39.4,16.5,30.27,ENE,63,4.0,6.0,39,0.00,,,0.00,Weather View 32 v70,2013-01-15 00:04:00,
2013-01-14 16:09:00,39.2,16.3,30.27,ENE,64,2.0,6.0,39,0.00,,,0.00,Weather View 32 v70,2013-01-15 00:09:00,
2013-01-14 16:14:00,39.2,16.3,30.27,ENE,63,3.0,6.0,39,0.00,,,0.00,Weather View 32 v70,2013-01-15 00:14:00,
2013-01-14 16:19:00,38.8,16.6,30.27,ENE,63,0.0,6.0,40,0.00,,,0.00,Weather View 32 v70,2013-01-15 00:19:00,
2013-01-14 16:24:00,38.5,16.2,30.27,ENE,64,0.0,6.0,40,0.00,,,0.00,Weather View 32 v70,2013-01-15 00:24:00,
2013-01-14 16:29:00,38.1,15.9,30.27,ENE,64,3.0,6.0,40,0.00,,,0.00,Weather View 32 v70,2013-01-15 00:29:00,
2013-01-14 16:34:00,37.8,15.6,30.27,ENE,74,4.0,6.0,40,0.00,,,0.00,Weather View 32 v70,2013-01-15 00:34:00,
2013-01-14 16:39:00,37.4,15.8,30.27,ENE,58,2.0,6.0,41,0.00,,,0.00,Weather View 32 v70,2013-01-15 00:39:00,
2013-01-14 16:44:00,37.2,15.7,30.27,ENE,58,2.0,6.0,41,0.00,,,0.00,Weather View 32 v70,2013-01-15 00:44:00,
2013-01-14 16:49:00,37.0,15.5,30.27,ENE,61,4.0,6.0,41,0.00,,,0.00,Weather View 32 v70,2013-01-15 00:49:00,
2013-01-14 16:54:00,36.3,14.8,30.27,ENE,73,3.0,6.0,41,0.00,,,0.00,Weather View 32 v70,2013-01-15 00:54:00,
2013-01-14 16:59:00,36.0,14.5,30.27,ENE,73,3.0,6.0,41,0.00,,,0.00,Weather View 32 v70,2013-01-15 00:59:00,
2013-01-14 17:00:00,35.8,14.9,30.27,ENE,73,3.0,6.0,42,0.00,,,0.00,Weather View 32 v70,2013-01-15 01:00:00,
2013-01-14 17:04:00,35.6,14.7,30.27,ENE,73,3.0,6.0,42,0.00,,,0.00,Weather View 32 v70,2013-01-15 01:04:00,
2013-01-14 17:09:00,35.2,14.4,30.27,ENE,73,0.0,6.0,42,0.00,,,0.00,Weather View 32 v70,2013-01-15 01:09:00,
2013-01-14 17:15:00,34.9,14.6,30.27,ENE,68,4.0,6.0,43,0.00,,,0.00,Weather View 32 v70,2013-01-15 01:15:00,
2013-01-14 17:20:00,34.5,14.3,30.27,ENE,68,0.0,6.0,43,0.00,,,0.00,Weather View 32 v70,2013-01-15 01:20:00,
2013-01-14 17:25:00,33.6,13.5,30.27,ENE,68,0.0,6.0,43,0.00,,,0.00,Weather View 32 v70,2013-01-15 01:25:00,
2013-01-14 17:30:00,33.1,13.5,30.27,ENE,68,0.0,6.0,44,0.00,,,0.00,Weather View 32 v70,2013-01-15 01:30:00,
2013-01-14 17:35:00,32.7,13.2,30.27,ENE,68,0.0,6.0,44,0.00,,,0.00,Weather View 32 v70,2013-01-15 01:35:00,
2013-01-14 17:40:00,31.8,13.4,30.27,ENE,68,0.0,6.0,46,0.00,,,0.00,Weather View 32 v70,2013-01-15 01:40:00,
2013-01-14 17:45:00,30.9,12.6,30.27,ENE,68,0.0,6.0,46,0.00,,,0.00,Weather View 32 v70,2013-01-15 01:45:00,
2013-01-14 17:50:00,30.4,13.0,30.27,ENE,68,0.0,6.0,48,0.00,,,0.00,Weather View 32 v70,2013-01-15 01:50:00,
2013-01-14 17:55:00,29.3,13.0,30.27,ENE,68,0.0,4.0,50,0.00,,,0.00,Weather View 32 v70,2013-01-15 01:55:00,
2013-01-14 18:00:00,28.6,11.8,30.27,ENE,68,0.0,4.0,49,0.00,,,0.00,Weather View 32 v70,2013-01-15 02:00:00,
2013-01-14 18:05:00,28.2,11.5,30.27,ENE,68,0.0,4.0,49,0.00,,,0.00,Weather View 32 v70,2013-01-15 02:05:00,
2013-01-14 18:10:00,27.9,11.2,30.27,ENE,68,0.0,4.0,49,0.00,,,0.00,Weather View 32 v70,2013-01-15 02:10:00,
2013-01-14 18:15:00,27.5,10.8,30.27,ENE,68,0.0,4.0,49,0.00,,,0.00,Weather View 32 v70,2013-01-15 02:15:00,
2013-01-14 18:20:00,27.1,10.5,30.27,ENE,68,0.0,4.0,49,0.00,,,0.00,Weather View 32 v70,2013-01-15 02:20:00,
2013-01-14 18:25:00,26.6,11.8,30.27,ENE,68,0.0,0.0,53,0.00,,,0.00,Weather View 32 v70,2013-01-15 02:25:00,
2013-01-14 18:30:00,26.6,11.3,30.27,ENE,68,0.0,0.0,52,0.00,,,0.00,Weather View 32 v70,2013-01-15 02:30:00,
2013-01-14 18:35:00,26.2,11.9,30.30,ENE,68,0.0,0.0,54,0.00,,,0.00,Weather View 32 v70,2013-01-15 02:35:00,
2013-01-14 18:40:00,26.2,11.9,30.30,ENE,68,0.0,0.0,54,0.00,,,0.00,Weather View 32 v70,2013-01-15 02:40:00,
2013-01-14 18:45:00,26.1,11.3,30.30,ENE,68,0.0,0.0,53,0.00,,,0.00,Weather View 32 v70,2013-01-15 02:45:00,
2013-01-14 18:50:00,26.1,11.3,30.30,ENE,68,0.0,0.0,53,0.00,,,0.00,Weather View 32 v70,2013-01-15 02:50:00,
2013-01-14 18:55:00,25.7,10.9,30.30,ENE,68,0.0,0.0,53,0.00,,,0.00,Weather View 32 v70,2013-01-15 02:55:00,
2013-01-14 19:00:00,25.5,11.6,30.30,ENE,68,0.0,0.0,55,0.00,,,0.00,Weather View 32 v70,2013-01-15 03:00:00,
2013-01-14 19:05:00,25.3,11.4,30.30,ENE,68,0.0,0.0,55,0.00,,,0.00,Weather View 32 v70,2013-01-15 03:05:00,
2013-01-14 19:10:00,25.3,11.4,30.30,ENE,68,0.0,0.0,55,0.00,,,0.00,Weather View 32 v70,2013-01-15 03:10:00,
2013-01-14 19:15:00,25.2,11.3,30.30,ENE,68,0.0,0.0,55,0.00,,,0.00,Weather View 32 v70,2013-01-15 03:15:00,
2013-01-14 19:20:00,25.2,10.8,30.30,ENE,68,0.0,0.0,54,0.00,,,0.00,Weather View 32 v70,2013-01-15 03:20:00,
2013-01-14 19:25:00,24.8,10.9,30.30,ENE,68,0.0,0.0,55,0.00,,,0.00,Weather View 32 v70,2013-01-15 03:25:00,
2013-01-14 19:30:00,24.6,10.7,30.30,ENE,68,0.0,0.0,55,0.00,,,0.00,Weather View 32 v70,2013-01-15 03:30:00,
2013-01-14 19:35:00,24.4,10.6,30.30,ENE,68,0.0,0.0,55,0.00,,,0.00,Weather View 32 v70,2013-01-15 03:35:00,
2013-01-14 19:41:00,24.4,11.0,30.30,ENE,68,0.0,0.0,56,0.00,,,0.00,Weather View 32 v70,2013-01-15 03:41:00,
2013-01-14 19:46:00,24.1,11.0,30.30,ENE,68,0.0,0.0,57,0.00,,,0.00,Weather View 32 v70,2013-01-15 03:46:00,
2013-01-14 19:51:00,23.9,10.5,30.30,ENE,68,0.0,0.0,56,0.00,,,0.00,Weather View 32 v70,2013-01-15 03:51:00,
2013-01-14 19:56:00,23.7,10.7,30.30,ENE,68,0.0,0.0,57,0.00,,,0.00,Weather View 32 v70,2013-01-15 03:56:00,
2013-01-14 20:01:00,23.5,10.9,30.30,ENE,68,0.0,0.0,58,0.00,,,0.00,Weather View 32 v70,2013-01-15 04:01:00,
2013-01-14 20:06:00,23.5,11.3,30.30,ENE,68,0.0,0.0,59,0.00,,,0.00,Weather View 32 v70,2013-01-15 04:06:00,
2013-01-14 20:11:00,23.5,11.7,30.30,ENE,68,0.0,0.0,60,0.00,,,0.00,Weather View 32 v70,2013-01-15 04:11:00,
2013-01-14 20:16:00,23.4,11.1,30.30,ENE,68,0.0,0.0,59,0.00,,,0.00,Weather View 32 v70,2013-01-15 04:16:00,
2013-01-14 20:21:00,23.2,10.6,30.30,ENE,68,0.0,0.0,58,0.00,,,0.00,Weather View 32 v70,2013-01-15 04:21:00,
2013-01-14 20:26:00,23.2,10.6,30.30,ENE,68,0.0,0.0,58,0.00,,,0.00,Weather View 32 v70,2013-01-15 04:26:00,
2013-01-14 20:31:00,23.0,10.4,30.30,ENE,68,0.0,0.0,58,0.00,,,0.00,Weather View 32 v70,2013-01-15 04:31:00,
2013-01-14 20:36:00,22.8,10.3,30.30,ENE,68,0.0,0.0,58,0.00,,,0.00,Weather View 32 v70,2013-01-15 04:36:00,
2013-01-14 20:41:00,22.6,10.1,30.30,ENE,68,0.0,0.0,58,0.00,,,0.00,Weather View 32 v70,2013-01-15 04:41:00,
2013-01-14 20:46:00,22.6,10.1,30.33,ENE,68,0.0,0.0,58,0.00,,,0.00,Weather View 32 v70,2013-01-15 04:46:00,
2013-01-14 20:51:00,22.5,10.3,30.33,ENE,68,0.0,0.0,59,0.00,,,0.00,Weather View 32 v70,2013-01-15 04:51:00,
2013-01-14 20:56:00,22.3,10.5,30.33,ENE,68,0.0,0.0,60,0.00,,,0.00,Weather View 32 v70,2013-01-15 04:56:00,
2013-01-14 21:00:00,22.1,10.0,30.30,ENE,68,0.0,0.0,59,0.00,,,0.00,Weather View 32 v70,2013-01-15 05:00:00,
2013-01-14 21:02:00,22.1,10.0,30.30,ENE,68,0.0,0.0,59,0.00,,,0.00,Weather View 32 v70,2013-01-15 05:02:00,
2013-01-14 21:07:00,21.9,9.8,30.30,ENE,68,0.0,0.0,59,0.00,,,0.00,Weather View 32 v70,2013-01-15 05:07:00,
2013-01-14 21:12:00,21.9,9.8,30.30,ENE,68,0.0,0.0,59,0.00,,,0.00,Weather View 32 v70,2013-01-15 05:12:00,
2013-01-14 21:16:00,21.7,10.4,30.30,ENE,68,0.0,0.0,61,0.00,,,0.00,Weather View 32 v70,2013-01-15 05:16:00,
2013-01-14 21:21:00,21.7,10.0,30.33,ENE,68,0.0,0.0,60,0.00,,,0.00,Weather View 32 v70,2013-01-15 05:21:00,
2013-01-14 21:26:00,21.7,10.0,30.33,ENE,68,0.0,0.0,60,0.00,,,0.00,Weather View 32 v70,2013-01-15 05:26:00,
2013-01-14 21:31:00,21.6,9.4,30.33,ENE,68,0.0,0.0,59,0.00,,,0.00,Weather View 32 v70,2013-01-15 05:31:00,
2013-01-14 21:36:00,21.4,9.3,30.33,ENE,68,0.0,0.0,59,0.00,,,0.00,Weather View 32 v70,2013-01-15 05:36:00,
2013-01-14 21:41:00,21.2,9.5,30.33,ENE,68,0.0,0.0,60,0.00,,,0.00,Weather View 32 v70,2013-01-15 05:41:00,
2013-01-14 21:46:00,21.2,9.5,30.30,ENE,68,0.0,0.0,60,0.00,,,0.00,Weather View 32 v70,2013-01-15 05:46:00,
2013-01-14 21:51:00,21.2,9.5,30.30,ENE,68,0.0,0.0,60,0.00,,,0.00,Weather View 32 v70,2013-01-15 05:51:00,
2013-01-14 21:56:00,21.0,9.3,30.30,ENE,68,0.0,0.0,60,0.00,,,0.00,Weather View 32 v70,2013-01-15 05:56:00,
2013-01-14 22:01:00,20.8,9.5,30.30,ENE,68,0.0,0.0,61,0.00,,,0.00,Weather View 32 v70,2013-01-15 06:01:00,
2013-01-14 22:06:00,20.8,9.5,30.30,ENE,68,0.0,0.0,61,0.00,,,0.00,Weather View 32 v70,2013-01-15 06:06:00,
2013-01-14 22:11:00,20.5,9.5,30.30,ENE,68,0.0,0.0,62,0.00,,,0.00,Weather View 32 v70,2013-01-15 06:11:00,
2013-01-14 22:16:00,20.3,9.4,30.33,ENE,68,0.0,0.0,62,0.00,,,0.00,Weather View 32 v70,2013-01-15 06:16:00,
2013-01-14 22:21:00,20.3,10.1,30.33,ENE,68,0.0,0.0,64,0.00,,,0.00,Weather View 32 v70,2013-01-15 06:21:00,
2013-01-14 22:26:00,20.3,9.7,30.33,ENE,68,0.0,0.0,63,0.00,,,0.00,Weather View 32 v70,2013-01-15 06:26:00,
2013-01-14 22:31:00,20.3,9.7,30.33,ENE,68,0.0,0.0,63,0.00,,,0.00,Weather View 32 v70,2013-01-15 06:31:00,
2013-01-14 22:36:00,20.1,9.5,30.33,ENE,68,0.0,0.0,63,0.00,,,0.00,Weather View 32 v70,2013-01-15 06:36:00,
2013-01-14 22:41:00,20.1,9.2,30.33,ENE,68,0.0,0.0,62,0.00,,,0.00,Weather View 32 v70,2013-01-15 06:41:00,
2013-01-14 22:46:00,20.1,9.5,30.33,ENE,68,0.0,0.0,63,0.00,,,0.00,Weather View 32 v70,2013-01-15 06:46:00,
2013-01-14 22:51:00,20.1,9.2,30.33,ENE,68,0.0,0.0,62,0.00,,,0.00,Weather View 32 v70,2013-01-15 06:51:00,
2013-01-14 22:56:00,19.9,9.0,30.33,ENE,68,0.0,0.0,62,0.00,,,0.00,Weather View 32 v70,2013-01-15 06:56:00,
2013-01-14 23:01:00,19.9,9.0,30.33,ENE,68,0.0,0.0,62,0.00,,,0.00,Weather View 32 v70,2013-01-15 07:01:00,
2013-01-14 23:06:00,19.8,9.2,30.33,ENE,68,0.0,3.0,63,0.00,,,0.00,Weather View 32 v70,2013-01-15 07:06:00,
2013-01-14 23:11:00,19.8,9.2,30.33,ENE,68,0.0,3.0,63,0.00,,,0.00,Weather View 32 v70,2013-01-15 07:11:00,
2013-01-14 23:16:00,19.6,9.0,30.33,ENE,68,0.0,3.0,63,0.00,,,0.00,Weather View 32 v70,2013-01-15 07:16:00,
2013-01-14 23:21:00,19.6,9.4,30.33,ENE,68,0.0,3.0,64,0.00,,,0.00,Weather View 32 v70,2013-01-15 07:21:00,
2013-01-14 23:27:00,19.6,9.4,30.33,ENE,68,0.0,3.0,64,0.00,,,0.00,Weather View 32 v70,2013-01-15 07:27:00,
2013-01-14 23:32:00,19.6,9.4,30.33,ENE,68,0.0,3.0,64,0.00,,,0.00,Weather View 32 v70,2013-01-15 07:32:00,
2013-01-14 23:37:00,19.6,9.4,30.33,ENE,68,0.0,3.0,64,0.00,,,0.00,Weather View 32 v70,2013-01-15 07:37:00,
2013-01-14 23:42:00,19.6,9.4,30.33,ENE,68,0.0,3.0,64,0.00,,,0.00,Weather View 32 v70,2013-01-15 07:42:00,
2013-01-14 23:47:00,19.6,10.4,30.33,ENE,68,0.0,3.0,67,0.00,,,0.00,Weather View 32 v70,2013-01-15 07:47:00,
2013-01-14 23:52:00,19.6,11.4,30.33,ENE,68,0.0,3.0,70,0.00,,,0.00,Weather View 32 v70,2013-01-15 07:52:00,
2013-01-14 23:57:00,19.6,11.7,30.33,ENE,68,0.0,3.0,71,0.00,,,0.00,Weather View 32 v70,2013-01-15 07:57:00,